Retour au catalogue

STARLINK-38226

ActifCommunicationsSSO
NORAD 100217·PAYLOAD·🇺🇸 United States

Lancé Aug 4, 2026 depuis Vandenberg Space Force Base

Loading…

Prochains Passages (prochaines 24 heures)

TLE

FraisSource: Space-Track

Époque: Sep 14, 2026, 16:39 UTC

1 A0217U 26177E   26257.69418475  .00025337  00000-0  46550-3 0  9992
2 A0217  97.2829 308.4649 0001354  91.2993 268.8413 15.49221861  6466

Suivez STARLINK-38226 en temps réel avec AllMySat

Download on the App Store